Overview Statistics Trail Chart Weather Telemetry Raw packets
 

This is the latest recevied weather packets stored in our database for station/object K0CVS. If no packets are shown the sender has not sent any weather packets the latest 10 day(s).

<< 1 2 3 4 5 6 >>
Time Temp. Humidity Pressure Rain* Wind** Luminosity Snow
1788562905 35.56° C 42% 1012.8 hPa 0 mm - 25 W/m² -
1788562604 35.56° C 42% 1012.7 hPa 0 mm - 26 W/m² -
1788562298 35.56° C 42% 1012.8 hPa 0 mm - 26 W/m² -
1788561993 36.11° C 41% 1012.8 hPa 0 mm - 27 W/m² -
1788561687 36.11° C 41% 1012.7 hPa 0 mm - 28 W/m² -
1788561387 36.11° C 41% 1012.8 hPa 0 mm - 29 W/m² -
1788561082 36.11° C 41% 1012.5 hPa 0 mm - 30 W/m² -
1788560778 36.11° C 42% 1012.7 hPa 0 mm - 30 W/m² -
1788560474 36.11° C 42% 1012.7 hPa 0 mm - 31 W/m² -
1788560173 36.11° C 42% 1012.7 hPa 0 mm - 32 W/m² -
1788559873 36.11° C 41% 1012.7 hPa 0 mm - 33 W/m² -
1788559568 36.11° C 42% 1012.6 hPa 0 mm - 34 W/m² -
1788559263 36.11° C 42% 1013 hPa 0 mm - 34 W/m² -
1788558958 36.11° C 42% 1012.7 hPa 0 mm - 35 W/m² -
1788558654 36.11° C 42% 1012.8 hPa 0 mm - 36 W/m² -
1788558349 36.11° C 42% 1012.9 hPa 0 mm - 37 W/m² -
1788558044 36.11° C 42% 1013 hPa 0 mm - 38 W/m² -
1788557742 36.67° C 42% 1013.1 hPa 0 mm - 39 W/m² -
1788557439 36.67° C 41% 1013.1 hPa 0 mm - 39 W/m² -
1788557138 36.67° C 42% 1013 hPa 0 mm - 40 W/m² -
1788556834 36.67° C 42% 1012.8 hPa 0 mm - 42 W/m² -
1788556528 36.67° C 42% 1013 hPa 0 mm - 43 W/m² -
1788556223 36.67° C 42% 1013.1 hPa 0 mm - 408 W/m² -
1788555922 37.22° C 41% 1013 hPa 0 mm - 424 W/m² -
1788555619 36.67° C 41% 1013.2 hPa 0 mm - 437 W/m² -

* Rain latest hour (hover to see other rain measurements)
** Current wind speed in m/s (hover to see current wind gust speed)